Timestamp[UTC];2m Lufttemperatur [degC] (tas);Stations-Luftdruck [Pa] (ps);relative Luftfeuchtigkeit [%] (hurs);spezifische Luftfeuchtigkeit [kg/kg] (huss);Niederschlagsmenge [mm] (pr);Windgeschwindigkeit in 2m [m/s] (sfcWind);Windrichtung [deg];maximale Windgeschwindigkeit [m/s] (wsgsmax);u-Windkomponente [m/s] (uas);v-Windkomponente [m/s] (vas);Sonneneinstrahlung [W/m2];Blitzrate [n];Blitzentfernung [km];Bodenfeuchte in 5cm Tiefe [vol%];Bodenfeuchte in 15cm Tiefe [vol%];Bodenfeuchte in 30cm Tiefe [vol%];Bodenfeuchte in 60cm Tiefe [vol%];Bodentemperatur in 5cm Tiefe [degC];Bodentemperatur in 15cm Tiefe [degC];Bodentemperatur in 30cm Tiefe [degC];Bodentemperatur in 60cm Tiefe [degC];Matrixpotential in 30cm Tiefe [kPa];Bodenfeuchte aus CRNS [vol%] (mrso);Neutronen Anzahl [N/h]
2021-07-01 00:00:00;13,5;101120;100;0,0096;0,0;1,5;272;3,0;0,05;-1,54;0;0;0;25,9;29,8;28,8;19,2;17,4;17,9;17,7;17,3;-8,7;20,3;1477
2021-07-01 01:00:00;13,4;101130;100;0,0095;0,0;1,8;268;3,4;-0,06;-1,75;0;0;0;25,9;29,8;28,8;19,2;17,3;17,8;17,7;17,3;-8,7;20,8;1535
2021-07-01 02:00:00;13,3;101112;100;0,0094;0,0;1,9;272;3,8;0,08;-1,93;0;0;0;25,9;29,8;28,8;19,1;17,3;17,8;17,6;17,3;-8,7;21,3;1529
2021-07-01 03:00:00;13,2;101127;100;0,0094;0,02;1,9;283;4,3;0,44;-1,86;0;0;0;25,9;29,8;28,8;19,1;17,2;17,7;17,5;17,3;-8,7;21,7;1497
2021-07-01 04:00:00;13,1;101142;100;0,0093;0,09;2,1;278;4,2;0,29;-2,04;10;0;0;25,8;29,8;28,8;19,1;17,1;17,7;17,4;17,2;-8,7;22,1;1532
2021-07-01 05:00:00;13,2;101145;100;0,0094;0,0;2,5;276;4,8;0,28;-2,44;49;0;0;25,8;29,8;28,8;19,1;17,0;17,6;17,4;17,2;-8,7;22,3;1501
2021-07-01 06:00:00;13,2;101137;99;0,0093;0,02;2,5;278;5,2;0,37;-2,49;69;0;0;25,8;29,8;28,8;19,1;17,0;17,6;17,3;17,2;-8,7;22,5;1549
2021-07-01 07:00:00;13,1;101175;100;0,0093;0,21;2,5;272;5,0;0,14;-2,5;53;0;0;25,8;29,8;28,8;19,1;17,0;17,6;17,3;17,2;-8,7;22,9;1521
2021-07-01 08:00:00;13,1;101200;100;0,0093;1,41;2,7;266;5,7;-0,2;-2,7;106;0;0;25,9;29,8;28,8;19,1;16,9;17,5;17,2;17,2;-8,7;22,6;1478
2021-07-01 09:00:00;13,3;101188;100;0,0094;1,87;3,1;261;5,5;-0,46;-3,09;119;0;0;27,2;29,8;28,9;19,1;16,8;17,5;17,1;17,2;-8,6;22,7;1491
2021-07-01 10:00:00;13,3;101207;100;0,0094;1,48;3,1;264;6,1;-0,27;-3,06;113;0;0;30,3;29,9;30,3;19,1;16,7;17,4;17,1;17,2;-8,7;22,8;1531
2021-07-01 11:00:00;13,7;101230;100;0,0097;1,74;3,0;266;6,4;-0,17;-3,02;117;0;0;31,2;30,2;31,3;19,0;16,7;17,4;17,0;17,1;-8,6;22,6;1470
2021-07-01 12:00:00;13,9;101262;100;0,0098;1,47;3,0;271;6,7;0,07;-2,98;97;0;0;31,5;30,7;31,5;19,0;16,7;17,3;17,0;17,1;-8,4;22,7;1475
2021-07-01 13:00:00;14,2;101295;100;0,01;1,24;2,7;267;5,1;-0,1;-2,68;96;0;0;31,3;31,1;31,6;19,0;16,7;17,3;16,9;17,1;-8,2;22,7;1459
2021-07-01 14:00:00;14,3;101330;100;0,01;0,69;2,7;266;5,5;-0,17;-2,71;55;0;0;30,8;31,2;31,5;19,0;16,7;17,2;16,9;17,1;-8,2;22,7;1507
2021-07-01 15:00:00;14,4;101345;100;0,0101;0,68;2,7;262;5,1;-0,37;-2,67;60;0;0;30,5;31,2;31,4;19,0;16,7;17,2;16,9;17,1;-8,2;22,7;1444
2021-07-01 16:00:00;14,6;101365;100;0,0102;0,37;2,4;258;4,5;-0,51;-2,4;75;0;0;30,2;31,2;31,4;19,0;16,7;17,2;16,9;17,1;-8,2;22,7;1436
2021-07-01 17:00:00;14,8;101373;100;0,0104;0,0;2,4;259;4,6;-0,43;-2,31;78;0;0;29,9;31,2;31,3;19,0;16,8;17,2;16,9;17,0;-8,2;23,0;1453
2021-07-01 18:00:00;14,6;101392;98;0,01;0,0;2,3;256;4,6;-0,54;-2,28;28;0;0;29,8;31,2;31,3;19,1;16,8;17,1;16,9;17,0;-8,2;23,0;1382
2021-07-01 19:00:00;14,3;101440;97;0,0097;0,0;1,9;256;3,7;-0,44;-1,82;7;0;0;29,6;31,2;31,3;19,2;16,7;17,1;16,9;17,0;-8,2;23,2;1575
2021-07-01 20:00:00;14,2;101485;98;0,0098;0,0;1,5;253;2,9;-0,42;-1,39;0;0;0;29,4;31,2;31,2;19,3;16,7;17,1;16,8;17,0;-8,2;23,3;1434
2021-07-01 21:00:00;14,1;101497;98;0,0097;0,0;1,6;248;2,9;-0,59;-1,5;0;0;0;29,3;31,2;31,2;19,4;16,6;17,1;16,8;17,0;-8,2;22,8;1464
2021-07-01 22:00:00;14,0;101490;99;0,0097;0,0;1,4;243;2,6;-0,63;-1,28;0;0;0;29,2;31,2;31,2;19,5;16,6;17,1;16,8;17,0;-8,2;22,2;1542
2021-07-01 23:00:00;13,8;101498;100;0,0097;0,0;1,3;236;2,3;-0,75;-1,1;0;0;0;29,0;31,2;31,2;19,6;16,6;17,0;16,8;16,9;-8,2;21,7;1414
2021-07-02 00:00:00;13,7;101477;100;0,0097;0,0;1,1;235;1,9;-0,6;-0,86;0;0;0;28,9;31,2;31,2;19,6;16,6;17,0;16,8;16,9;-8,2;21,0;1422
2021-07-02 01:00:00;13,7;101448;100;0,0096;0,0;1,0;226;1,9;-0,65;-0,69;0;0;0;28,8;31,2;31,2;19,6;16,6;17,0;16,7;16,9;-8,2;20,2;1477
2021-07-02 02:00:00;13,7;101430;100;0,0097;0,0;1,1;232;2,1;-0,68;-0,88;0;0;0;28,7;31,2;31,1;19,7;16,6;17,0;16,7;16,9;-8,2;19,5;1503
2021-07-02 03:00:00;13,7;101428;100;0,0096;0,0;1,3;243;2,9;-0,56;-1,16;5;0;0;28,6;31,2;31,1;19,7;16,5;17,0;16,7;16,9;-8,2;18,8;1456
2021-07-02 04:00:00;13,6;101463;100;0,0096;0,0;1,0;235;2,0;-0,57;-0,82;19;0;0;28,5;31,2;31,1;19,7;16,5;16,9;16,7;16,9;-8,2;18,0;1372
2021-07-02 05:00:00;13,7;101478;100;0,0097;0,0;1,4;238;2,9;-0,71;-1,19;68;0;0;28,4;31,2;31,1;19,7;16,5;16,9;16,7;16,8;-8,2;17,1;1428
2021-07-02 06:00:00;14,0;101480;98;0,0097;0,0;1,2;230;2,5;-0,7;-0,95;128;0;0;28,4;31,2;31,0;19,7;16,6;16,9;16,6;16,8;-8,2;16,6;1430
2021-07-02 07:00:00;15,5;101482;93;0,0101;0,0;1,9;230;4,1;-1,13;-1,4;366;0;0;28,3;31,2;31,0;19,7;16,7;16,9;16,7;16,8;-8,2;15,8;1431
2021-07-02 08:00:00;17,1;101483;80;0,0096;0,0;2,4;245;4,7;-0,95;-2,18;500;0;0;28,1;31,2;30,9;19,7;16,9;16,9;16,7;16,8;-8,2;15,4;1640
2021-07-02 09:00:00;17,8;101488;75;0,0094;0,0;2,1;252;4,6;-0,62;-1,9;522;0;0;27,9;31,1;30,8;19,7;17,2;16,8;16,8;16,8;-8,2;14,8;1704
2021-07-02 10:00:00;17,8;101518;74;0,0092;0,0;2,1;255;4,0;-0,53;-2,04;352;0;0;27,7;31,1;30,7;19,7;17,3;16,8;16,9;16,8;-8,2;14,5;1747
2021-07-02 11:00:00;19,0;101517;68;0,0092;0,0;1,8;256;4,0;-0,43;-1,71;609;0;0;27,4;31,1;30,6;19,7;17,5;16,9;17,0;16,8;-8,2;14,5;1760
2021-07-02 12:00:00;19,4;101490;66;0,0092;0,0;2,0;250;4,0;-0,67;-1,89;514;0;0;27,2;31,1;30,4;19,7;17,8;16,9;17,1;16,7;-8,2;14,4;1848
2021-07-02 13:00:00;19,3;101490;72;0,0099;0,0;2,0;276;4,6;0,19;-1,95;319;0;0;27,0;31,0;30,3;19,7;18,0;16,9;17,3;16,7;-8,2;14,3;1805
2021-07-02 14:00:00;19,2;101490;76;0,0104;0,0;1,5;305;3,8;0,86;-1,26;395;0;0;26,8;31,0;30,2;19,6;18,0;17,0;17,4;16,7;-8,2;14,3;1866
2021-07-02 15:00:00;19,5;101498;76;0,0106;0,0;1,4;289;3,8;0,4;-1,33;272;0;0;26,7;30,9;30,1;19,6;18,2;17,0;17,5;16,7;-8,2;14,4;1827
2021-07-02 16:00:00;19,4;101502;77;0,0107;0,0;2,0;269;4,2;-0,03;-2,03;234;0;0;26,6;30,9;30,0;19,6;18,2;17,1;17,6;16,7;-8,2;14,4;1942
2021-07-02 17:00:00;19,6;101490;76;0,0106;0,0;1,6;261;3,3;-0,27;-1,58;242;0;0;26,4;30,9;29,9;19,6;18,1;17,1;17,6;16,7;-8,2;14,3;1778
2021-07-02 18:00:00;19,1;101462;78;0,0105;0,0;1,1;255;2,6;-0,24;-1,05;138;0;0;26,4;30,9;29,8;19,6;18,1;17,2;17,7;16,7;-8,2;14,3;1855
2021-07-02 19:00:00;18,2;101430;84;0,0108;0,0;0,4;227;0,8;-0,23;-0,21;32;0;0;26,3;30,8;29,8;19,6;18,0;17,2;17,7;16,7;-8,2;14,1;1823
2021-07-02 20:00:00;15,9;101457;92;0,0102;0,0;0,5;250;0,9;-0,19;-0,51;1;0;0;26,3;30,8;29,8;19,6;17,6;17,2;17,6;16,7;-8,2;13,8;1869
2021-07-02 21:00:00;14,7;101492;96;0,0099;0,0;0,8;258;1,1;-0,15;-0,74;0;0;0;26,3;30,8;29,8;19,6;17,3;17,3;17,5;16,7;-8,2;13,7;1692
2021-07-02 22:00:00;13,8;101485;99;0,0096;0,0;0,5;144;1,0;-0,25;0,3;0;0;0;26,3;30,8;29,7;19,5;17,0;17,3;17,4;16,7;-8,2;13,5;1549
2021-07-02 23:00:00;13,3;101463;99;0,0093;0,0;0,4;278;0,5;-0,07;-0,3;0;0;0;26,3;30,8;29,7;19,5;16,8;17,3;17,2;16,7;-8,2;13,5;1512
2021-07-03 00:00:00;12,8;101445;99;0,009;0,0;0,4;165;0,6;-0,32;0,1;0;0;0;26,2;30,8;29,7;19,5;16,5;17,2;17,1;16,7;-8,2;13,5;1486
2021-07-03 01:00:00;12,4;101450;99;0,0087;0,0;0,4;192;0,6;-0,12;-0,1;0;0;0;26,2;30,8;29,7;19,5;16,3;17,2;16,9;16,7;-8,4;13,5;1490
2021-07-03 02:00:00;11,4;101450;100;0,0083;0,02;0,4;140;0,7;-0,26;0,22;0;0;0;26,2;30,8;29,7;19,5;16,1;17,1;16,8;16,7;-8,4;13,7;1436
2021-07-03 03:00:00;11,4;101465;99;0,0082;0,02;0,5;180;0,7;-0,22;-0,05;4;0;0;26,1;30,8;29,6;19,5;15,9;17,1;16,6;16,7;-8,4;14,1;1480
2021-07-03 04:00:00;11,5;101412;100;0,0084;0,04;0,4;124;0,8;-0,22;0,37;78;0;0;26,1;30,8;29,6;19,5;15,8;17,0;16,5;16,7;-8,4;14,4;1489
2021-07-03 05:00:00;13,8;101395;100;0,0097;0,02;0,5;148;1,1;-0,33;0,22;186;0;0;26,1;30,8;29,6;19,5;16,0;16,9;16,4;16,7;-8,4;14,6;1459
2021-07-03 06:00:00;16,9;101420;99;0,0117;0,0;0,8;192;1,7;-0,82;-0,19;269;0;0;26,1;30,8;29,6;19,5;16,3;16,8;16,4;16,7;-8,4;14,8;1538
2021-07-03 07:00:00;18,8;101405;89;0,0119;0,0;0,9;172;1,9;-0,85;0,05;374;0;0;26,0;30,8;29,5;19,4;16,7;16,8;16,5;16,7;-8,4;15,1;1657
2021-07-03 08:00:00;20,7;101370;78;0,0118;0,0;1,2;157;2,8;-1,03;0,44;556;0;0;26,0;30,7;29,5;19,4;17,1;16,8;16,6;16,7;-8,4;15,0;1723
2021-07-03 09:00:00;22,1;101330;69;0,0113;0,0;1,0;171;2,8;-0,92;0,14;652;0;0;25,8;30,7;29,4;19,4;17,7;16,7;16,8;16,7;-8,4;15,2;1827
2021-07-03 10:00:00;22,7;101300;64;0,011;0,0;1,0;198;2,9;-0,46;0,04;641;0;0;25,6;30,7;29,2;19,4;18,2;16,8;17,0;16,7;-8,5;15,3;1812
2021-07-03 11:00:00;23,4;101255;59;0,0104;0,0;1,1;147;3,1;-0,65;0,01;658;0;0;25,4;30,6;29,0;19,4;18,6;16,8;17,3;16,6;-8,5;15,1;1802
2021-07-03 12:00:00;24,2;101173;55;0,0102;0,0;1,2;162;2,9;-1,14;0,36;788;0;0;25,1;30,5;28,9;19,4;19,1;16,9;17,6;16,6;-8,5;15,1;1808
2021-07-03 13:00:00;24,6;101138;54;0,0102;0,0;1,2;236;2,7;-0,38;-0,66;685;0;0;24,8;30,5;28,7;19,4;19,4;17,0;17,8;16,6;-8,5;14,9;1707
2021-07-03 14:00:00;24,8;101092;53;0,0102;0,0;1,3;259;3,4;-0,24;-1,23;518;0;0;24,6;30,4;28,5;19,4;19,5;17,1;18,1;16,6;-8,6;14,8;1609
2021-07-03 15:00:00;23,9;101070;57;0,0105;0,0;1,2;251;3,0;-0,39;-1,17;230;0;0;24,4;30,4;28,4;19,3;19,5;17,2;18,2;16,6;-8,6;14,6;1671
2021-07-03 16:00:00;22,9;101035;62;0,0108;0,0;1,8;250;3,6;-0,61;-1,66;122;0;0;24,4;30,3;28,3;19,3;19,3;17,3;18,3;16,6;-8,6;14,5;1911
2021-07-03 17:00:00;21,4;101008;66;0,0104;0,0;1,5;241;3,2;-0,68;-1,36;40;0;0;24,3;30,3;28,3;19,3;19,0;17,4;18,3;16,6;-8,6;14,4;2147
2021-07-03 18:00:00;20,1;101010;74;0,0108;0,19;1,4;248;3,0;-0,5;-1,29;23;0;0;24,3;30,3;28,3;19,3;18,8;17,5;18,3;16,6;-8,6;14,3;2079
2021-07-03 19:00:00;18,8;101018;90;0,0121;0,48;0,5;225;1,0;0,12;-0,3;14;0;0;24,3;30,3;28,3;19,3;18,7;17,5;18,3;16,6;-8,6;14,3;1920
2021-07-03 20:00:00;18,3;101045;95;0,0124;0,47;0,6;326;1,4;0,53;-0,3;0;0;0;24,3;30,3;28,2;19,3;18,6;17,6;18,2;16,6;-8,6;14,4;1794
2021-07-03 21:00:00;17,9;101077;97;0,0123;0,25;0,9;230;2,2;-0,58;-0,7;0;0;0;24,3;30,3;28,2;19,3;18,5;17,6;18,2;16,6;-8,6;14,4;1686
2021-07-03 22:00:00;17,5;101032;99;0,0122;0,36;0,4;132;0,8;-0,22;0,29;0;0;0;24,3;30,3;28,2;19,3;18,4;17,6;18,1;16,7;-8,6;14,4;1661
2021-07-03 23:00:00;17,3;100985;100;0,0122;0,16;0,4;193;0,8;-0,18;-0,04;0;0;0;24,4;30,3;28,2;19,3;18,3;17,6;18,1;16,7;-8,6;14,3;1583
2021-07-04 00:00:00;17,0;100960;100;0,012;0,07;0,6;132;1,0;-0,36;0,45;0;0;0;24,4;30,3;28,2;19,3;18,2;17,6;18,0;16,7;-8,6;14,1;1619
2021-07-04 01:00:00;17,0;100922;100;0,012;0,07;0,7;166;1,4;-0,47;0,21;0;0;0;24,4;30,3;28,2;19,2;18,1;17,6;17,9;16,7;-8,6;13,9;1599
2021-07-04 02:00:00;17,0;100920;100;0,012;0,07;0,6;225;1,3;-0,22;-0,27;0;0;0;24,4;30,3;28,2;19,2;18,0;17,6;17,9;16,7;-8,6;13,7;1629
2021-07-04 03:00:00;16,8;100897;100;0,0119;0,05;0,7;147;1,5;-0,61;0,39;0;0;0;24,4;30,3;28,2;19,2;18,0;17,6;17,8;16,8;-8,6;13,2;1577
2021-07-04 04:00:00;16,8;100887;100;0,0119;0,04;0,5;183;1,1;-0,22;0,09;6;0;0;24,4;30,3;28,2;19,2;17,9;17,5;17,8;16,8;-8,6;13,2;1601
2021-07-04 05:00:00;17,0;100910;100;0,012;0,14;0,3;189;0,8;-0,21;-0,12;52;0;0;24,4;30,2;28,2;19,2;17,9;17,5;17,7;16,8;-8,6;13,7;1521
2021-07-04 06:00:00;17,6;100905;100;0,0125;0,03;0,7;143;1,4;-0,48;0,45;147;0;0;24,4;30,2;28,1;19,2;18,0;17,5;17,7;16,8;-8,6;13,8;1595
2021-07-04 07:00:00;19,2;100862;99;0,0137;0,0;1,2;173;2,3;-1,02;0,17;373;0;0;24,4;30,2;28,1;19,2;18,2;17,5;17,7;16,8;-8,6;14,0;1661
2021-07-04 08:00:00;20,2;100847;90;0,0131;0,0;1,0;208;2,4;-0,83;-0,47;386;0;0;24,4;30,2;28,1;19,2;18,5;17,5;17,8;16,8;-8,6;14,5;1816
2021-07-04 09:00:00;21,3;100787;84;0,0132;0,0;1,0;186;2,3;-0,94;-0,11;500;0;0;24,4;30,2;28,1;19,2;18,8;17,5;17,9;16,8;-8,6;14,8;1922
2021-07-04 10:00:00;21,4;100742;81;0,0129;0,0;0,8;186;2,2;-0,01;-0,42;340;0;0;24,3;30,2;28,0;19,2;19,0;17,5;18,1;16,8;-8,6;15,1;1897
2021-07-04 11:00:00;21,9;100637;79;0,013;0,0;1,3;132;2,9;1,2;0,21;549;4;11;24,3;30,2;28,0;19,2;19,2;17,5;18,2;16,8;-8,6;15,3;2037
2021-07-04 12:00:00;22,6;100570;75;0,0128;0,0;1,5;140;3,1;0,38;1,01;453;3;5;24,2;30,1;27,9;19,2;19,6;17,6;18,3;16,8;-8,6;15,4;1992
2021-07-04 13:00:00;19,4;100540;93;0,013;0,24;2,5;142;5,3;-1,42;1,45;43;129;1;25,3;30,1;27,9;19,1;19,4;17,6;18,5;16,8;-8,6;15,6;1924
2021-07-04 14:00:00;17,4;100643;100;0,0123;0,85;1,8;206;4,0;-1,36;-0,79;21;90;4;29,4;30,2;29,8;19,1;19,1;17,7;18,6;16,8;-8,6;15,7;1982
2021-07-04 15:00:00;15,6;100667;100;0,011;1,13;2,7;251;4,9;-0,9;-2,49;80;0;0;32,1;31,2;31,7;19,1;18,7;17,8;18,5;16,8;-8,4;16,0;1724
2021-07-04 16:00:00;15,8;100623;100;0,0111;0,7;1,2;238;2,7;-0,58;-1,02;148;0;0;31,2;31,9;31,7;19,1;18,6;17,9;18,4;16,8;-8,0;16,0;1614
2021-07-04 17:00:00;16,0;100590;100;0,0113;0,98;1,4;207;2,7;-1,17;-0,68;119;0;0;30,6;31,9;31,6;19,1;18,6;17,9;18,4;16,9;-8,0;16,2;1662
2021-07-04 18:00:00;16,0;100680;100;0,0113;0,66;2,1;234;4,0;-1,23;-1,72;66;0;0;30,2;31,9;31,5;19,2;18,6;17,9;18,3;16,9;-8,0;16,2;1622
2021-07-04 19:00:00;15,7;100708;100;0,011;0,72;1,9;230;3,9;-1,22;-1,48;19;0;0;29,9;31,9;31,5;19,4;18,4;17,9;18,3;16,9;-8,0;16,3;1618
2021-07-04 20:00:00;15,1;100740;100;0,0107;0,4;1,4;206;2,7;-1,24;-0,62;1;0;0;29,7;31,9;31,4;19,7;18,3;17,9;18,2;16,9;-8,0;16,5;1621
2021-07-04 21:00:00;14,8;100763;100;0,0105;0,29;1,2;210;2,1;-1,01;-0,6;0;0;0;29,5;31,8;31,4;20,0;18,1;17,9;18,1;16,9;-8,0;17,1;1581
2021-07-04 22:00:00;14,8;100762;100;0,0105;0,36;1,3;210;2,4;-1,08;-0,64;0;0;0;29,4;31,8;31,3;20,2;18,0;17,8;18,1;16,9;-8,0;17,7;1565
2021-07-04 23:00:00;14,6;100773;100;0,0103;0,21;0,9;208;2,0;-0,79;-0,46;0;0;0;29,2;31,8;31,3;20,3;17,9;17,8;18,0;17,0;-8,0;17,9;1540
2021-07-05 00:00:00;14,1;100725;100;0,01;0,2;0,8;184;1,5;-0,75;-0,06;0;0;0;29,0;31,8;31,3;20,3;17,7;17,8;17,9;17,0;-8,0;18,3;1490
2021-07-05 01:00:00;13,8;100690;100;0,0098;0,15;0,8;176;2,0;-0,78;0,04;0;0;0;28,9;31,8;31,2;20,4;17,5;17,8;17,8;17,0;-8,0;18,6;1568
2021-07-05 02:00:00;13,6;100638;100;0,0096;0,14;0,9;171;1,8;-0,86;0,12;0;0;0;28,8;31,8;31,2;20,4;17,4;17,7;17,7;17,0;-8,0;18,7;1502
2021-07-05 03:00:00;13,7;100617;100;0,0097;0,09;0,9;183;2,0;-0,91;-0,06;5;0;0;28,7;31,8;31,1;20,4;17,3;17,7;17,6;17,0;-8,1;18,8;1584
2021-07-05 04:00:00;14,2;100632;100;0,0101;0,11;1,5;225;3,5;-0,83;-1,14;46;0;0;28,6;31,8;31,1;20,4;17,3;17,6;17,5;17,0;-8,1;18,5;1546
2021-07-05 05:00:00;13,9;100657;100;0,0099;0,07;2,2;269;4,6;-0,01;-2,18;26;0;0;29,7;31,8;31,3;20,4;17,2;17,6;17,4;17,0;-8,0;18,1;1532
2021-07-05 06:00:00;13,4;100708;100;0,0095;0,11;1,5;258;3,0;-0,3;-1,43;68;0;0;30,4;31,9;31,6;20,4;17,2;17,5;17,4;17,0;-8,0;17,7;1551
2021-07-05 07:00:00;13,4;100697;100;0,0095;0,08;0,9;242;1,9;-0,41;-0,8;140;0;0;30,3;32,0;31,7;20,4;17,2;17,5;17,3;17,0;-8,0;17,5;1561
2021-07-05 08:00:00;14,3;100730;100;0,0101;0,07;1,7;254;3,6;-0,42;-1,6;291;0;0;30,1;32,0;31,7;20,4;17,3;17,4;17,3;17,0;-8,0;17,5;1475
2021-07-05 09:00:00;15,5;100750;100;0,0109;0,08;1,9;260;4,0;-0,33;-1,86;412;0;0;30,0;32,0;31,6;20,4;17,5;17,4;17,3;17,0;-8,0;17,4;1551
2021-07-05 10:00:00;16,6;100752;100;0,0117;0,11;2,0;244;4,1;-0,89;-1,79;414;0;0;29,8;32,0;31,6;20,4;17,7;17,4;17,4;17,0;-8,0;17,3;1745
2021-07-05 11:00:00;17,1;100737;93;0,0113;0,08;2,4;245;4,6;-0,94;-2,08;248;0;0;29,5;32,0;31,6;20,4;17,8;17,4;17,4;17,0;-8,0;17,2;1790
2021-07-05 12:00:00;17,3;100722;88;0,0109;0,09;2,0;248;4,3;-0,6;-1,84;472;0;0;29,3;32,0;31,5;20,4;17,9;17,4;17,5;17,0;-8,0;17,1;1766
2021-07-05 13:00:00;18,7;100703;80;0,0108;0,06;1,5;195;3,4;-1,41;-0,4;531;0;0;29,1;32,0;31,5;20,4;18,1;17,4;17,6;16,9;-8,0;16,9;1889
2021-07-05 14:00:00;18,5;100687;78;0,0103;0,06;1,8;193;4,0;-1,72;-0,43;274;0;0;28,8;32,0;31,4;20,4;18,3;17,4;17,7;17,0;-8,0;16,9;1878
2021-07-05 15:00:00;18,2;100655;80;0,0104;0,06;2,2;191;4,7;-2,18;-0,43;327;0;0;28,6;31,9;31,3;20,4;18,3;17,4;17,8;16,9;-8,0;16,8;1913
2021-07-05 16:00:00;18,1;100610;82;0,0106;0,04;1,5;192;3,2;-1,4;-0,32;176;0;0;28,4;31,9;31,3;20,4;18,2;17,5;17,8;16,9;-8,0;16,9;1882
2021-07-05 17:00:00;18,1;100587;82;0,0106;0,04;1,2;159;2,6;-1,09;0,4;114;0;0;28,3;31,9;31,2;20,4;18,2;17,5;17,9;16,9;-8,0;16,9;1856
2021-07-05 18:00:00;18,0;100575;84;0,0108;0,04;0,8;145;1,5;-0,62;0,42;57;0;0;28,2;31,9;31,2;20,4;18,2;17,5;17,9;16,9;-8,0;16,8;1780
2021-07-05 19:00:00;17,6;100540;89;0,0111;0,02;0,5;108;0,9;-0,15;0,43;15;0;0;28,1;31,9;31,1;20,4;18,1;17,5;17,9;16,9;-8,0;16,7;1672
2021-07-05 20:00:00;17,0;100548;94;0,0112;0,04;0,3;106;0,6;-0,11;0,27;0;0;0;28,1;31,9;31,1;20,4;18,0;17,6;17,9;16,9;-8,0;16,7;1690
2021-07-05 21:00:00;16,8;100507;95;0,0113;0,02;0,4;136;0,8;-0,25;0,24;0;0;0;28,0;31,8;31,1;20,3;17,9;17,6;17,8;16,9;-8,1;16,4;1677
2021-07-05 22:00:00;17,0;100460;94;0,0114;0,02;0,9;149;1,7;-0,75;0,44;0;0;0;27,9;31,8;31,0;20,3;17,9;17,6;17,8;16,9;-8,0;16,2;1652
2021-07-05 23:00:00;17,4;100407;95;0,0117;0,02;1,0;179;2,2;-0,99;0,01;0;0;0;27,9;31,8;31,0;20,3;17,9;17,6;17,7;16,9;-8,0;16,3;1687
2021-07-06 00:00:00;17,9;100355;94;0,012;0,02;1,6;180;3,5;-1,58;-0,02;0;0;0;27,8;31,8;31,0;20,3;17,8;17,6;17,7;16,9;-8,0;16,5;1621
2021-07-06 01:00:00;18,1;100313;93;0,012;0,02;1,5;183;3,5;-1,51;-0,09;0;0;0;27,7;31,8;30,9;20,3;17,8;17,5;17,7;16,9;-8,0;16,4;1609
2021-07-06 02:00:00;18,0;100278;92;0,0119;0,02;1,2;183;2,7;-1,21;-0,1;0;0;0;27,7;31,8;30,9;20,2;17,8;17,5;17,7;16,9;-8,0;16,6;1620
2021-07-06 03:00:00;17,3;100190;95;0,0116;0,02;1,2;147;2,3;-0,97;0,62;4;0;0;27,6;31,8;30,9;20,2;17,8;17,5;17,6;16,9;-8,0;16,7;1595
2021-07-06 04:00:00;17,7;100113;93;0,0117;0,02;1,9;155;3,9;-1,76;0,75;34;0;0;27,6;31,8;30,9;20,2;17,7;17,5;17,6;16,9;-8,0;16,9;1620
2021-07-06 05:00:00;18,7;100135;87;0,0118;0,02;2,1;180;5,0;-2,07;-0,05;70;0;0;27,5;31,8;30,8;20,2;17,7;17,5;17,6;16,9;-8,0;17,0;1613
2021-07-06 06:00:00;19,7;100157;82;0,0118;0,0;3,3;193;8,5;-3,21;-0,78;68;0;0;27,4;31,8;30,8;20,1;17,7;17,5;17,6;16,9;-8,0;17,0;1673
2021-07-06 07:00:00;19,5;100130;82;0,0115;0,0;3,0;208;6,8;-2,61;-1,33;82;0;0;27,4;31,7;30,7;20,1;17,7;17,5;17,6;16,9;-8,0;16,8;1677
2021-07-06 08:00:00;19,8;100167;79;0,0113;0,02;3,0;218;8,1;-2,37;-1,87;168;0;0;27,3;31,7;30,7;20,1;17,7;17,5;17,6;16,9;-8,0;16,5;1725
2021-07-06 09:00:00;19,8;100182;82;0,0118;0,02;3,4;222;8,1;-2,5;-2,27;270;0;0;27,1;31,7;30,6;20,1;17,8;17,5;17,6;16,9;-8,0;16,5;1758
2021-07-06 10:00:00;20,2;100200;75;0,0111;0,0;4,0;231;9,0;-2,5;-3,07;435;0;0;26,9;31,7;30,5;20,1;17,9;17,5;17,6;16,9;-8,0;16,6;1765
2021-07-06 11:00:00;21,2;100247;63;0,0099;0,02;5,0;233;11,9;-2,94;-4,05;598;0;0;26,6;31,7;30,3;20,1;18,1;17,4;17,6;16,9;-8,1;16,5;1779
2021-07-06 12:00:00;21,2;100273;61;0,0095;0,02;4,5;232;9,5;-2,74;-3,55;501;0;0;26,4;31,6;30,1;20,0;18,2;17,5;17,7;16,9;-8,2;16,6;1876
2021-07-06 13:00:00;21,6;100330;60;0,0096;0,0;4,8;238;10,6;-2,54;-4,1;474;0;0;26,1;31,6;29,9;20,0;18,2;17,5;17,8;16,9;-8,3;16,5;1885
2021-07-06 14:00:00;21,5;100418;60;0,0095;0,0;4,5;241;9,4;-2,15;-3,97;480;0;0;25,8;31,5;29,8;20,0;18,2;17,5;17,8;16,9;-8,3;16,4;1854
2021-07-06 15:00:00;20,7;100503;59;0,0089;0,0;4,7;242;9,6;-2,07;-4,14;427;0;0;25,6;31,5;29,6;20,0;18,2;17,5;17,9;16,9;-8,3;16,4;1822
2021-07-06 16:00:00;21,1;100493;55;0,0085;0,0;4,1;243;8,0;-1,82;-3,6;421;0;0;25,4;31,4;29,5;19,9;18,2;17,5;17,9;16,9;-8,4;16,3;1854
2021-07-06 17:00:00;20,0;100548;57;0,0084;0,02;3,8;243;7,6;-1,7;-3,43;161;0;0;25,2;31,4;29,4;19,9;18,1;17,6;17,9;16,9;-8,4;16,2;1922
2021-07-06 18:00:00;17,4;100660;72;0,0089;0,0;3,3;262;6,7;-0,34;-3,27;71;0;0;25,1;31,3;29,3;19,9;17,9;17,6;17,8;16,9;-8,4;16,3;1902
2021-07-06 19:00:00;17,3;100708;73;0,009;0,02;2,5;250;5,6;-0,88;-2,35;30;0;0;25,1;31,3;29,3;19,9;17,8;17,6;17,8;16,9;-8,4;16,3;1837
2021-07-06 20:00:00;16,0;100773;79;0,0089;0,0;1,6;240;3,7;-0,8;-1,42;1;0;0;25,1;31,2;29,3;19,9;17,6;17,6;17,7;16,9;-8,4;16,1;1661
2021-07-06 21:00:00;15,2;100833;83;0,0089;0,02;1,3;232;2,5;-0,77;-1,03;0;0;0;25,1;31,2;29,2;19,8;17,4;17,6;17,6;16,9;-8,4;15,9;1616
2021-07-06 22:00:00;14,8;100860;86;0,0089;0,0;1,3;234;2,5;-0,77;-1,09;0;0;0;25,1;31,2;29,2;19,8;17,3;17,5;17,5;16,9;-8,4;15,7;1660
2021-07-06 23:00:00;14,2;100890;89;0,0089;0,0;1,0;236;2,1;-0,56;-0,84;0;0;0;25,1;31,2;29,2;19,8;17,2;17,5;17,5;16,9;-8,4;15,4;1561
2021-07-07 00:00:00;13,6;100930;92;0,0089;0,02;0,6;212;1,4;-0,46;-0,31;0;0;0;25,1;31,2;29,2;19,8;17,0;17,5;17,4;16,9;-8,4;15,1;1635
2021-07-07 01:00:00;13,3;100920;94;0,0089;0,0;0,6;178;1,5;-0,62;0,03;0;0;0;25,1;31,2;29,2;19,8;16,7;17,4;17,2;16,9;-8,4;14,9;1603
2021-07-07 02:00:00;13,0;100922;95;0,0088;0,02;0,9;166;1,9;-0,89;0,24;0;0;0;25,0;31,2;29,1;19,8;16,5;17,4;17,1;16,9;-8,4;14,7;1603
2021-07-07 03:00:00;12,5;100963;97;0,0086;0,0;1,1;150;2,0;-1,0;0,56;1;0;0;25,0;31,2;29,1;19,7;16,5;17,3;17,0;16,9;-8,4;14,5;1574
2021-07-07 04:00:00;13,0;101008;98;0,009;0,0;0,8;136;1,7;-0,55;0,48;45;0;0;25,0;31,2;29,1;19,7;16,5;17,3;16,9;16,9;-8,4;14,2;1545
2021-07-07 05:00:00;14,5;101037;94;0,0096;0,02;1,4;179;3,2;-1,38;-0,01;134;0;0;25,0;31,1;29,1;19,7;16,5;17,2;16,8;16,9;-8,4;14,2;1446
2021-07-07 06:00:00;16,3;101080;88;0,0101;0,0;1,7;189;3,6;-1,63;-0,28;228;0;0;25,0;31,1;29,1;19,7;16,7;17,2;16,8;16,9;-8,4;14,1;1618
2021-07-07 07:00:00;17,5;101133;84;0,0103;0,02;1,7;210;4,1;-1,44;-0,89;244;0;0;25,0;31,1;29,0;19,7;16,9;17,1;16,9;16,9;-8,4;14,0;1643
2021-07-07 08:00:00;19,5;101137;74;0,0103;0,0;2,5;219;6,5;-1,92;-1,56;534;0;0;24,8;31,1;28,9;19,7;17,2;17,1;16,9;16,9;-8,4;13,8;1726
2021-07-07 09:00:00;20,9;101160;68;0,0103;0,02;2,4;212;5,9;-2,04;-1,3;633;0;0;24,7;31,1;28,8;19,6;17,6;17,1;17,0;16,9;-8,4;13,5;1767
2021-07-07 10:00:00;20,9;101190;63;0,0096;0,0;2,9;219;6,5;-2,25;-1,84;488;0;0;24,5;31,0;28,7;19,6;17,9;17,1;17,2;16,9;-8,5;13,2;1853
2021-07-07 11:00:00;22,4;101205;55;0,0093;0,0;3,6;227;8,5;-2,34;-2,57;814;0;0;24,2;30,9;28,5;19,6;18,2;17,1;17,3;16,9;-8,5;13,1;1885
2021-07-07 12:00:00;22,4;101233;55;0,0092;0,0;3,3;250;7,0;-1,09;-3,12;585;0;0;23,9;30,9;28,3;19,6;18,4;17,1;17,5;16,8;-8,5;12,9;1894
2021-07-07 13:00:00;22,4;101267;56;0,0093;0,0;3,0;247;6,1;-1,14;-2,76;560;0;0;23,7;30,8;28,1;19,6;18,5;17,2;17,6;16,9;-8,5;12,9;1881
2021-07-07 14:00:00;21,8;101280;59;0,0095;0,0;2,6;255;5,1;-0,64;-2,47;362;0;0;23,5;30,8;28,0;19,6;18,5;17,2;17,8;16,8;-8,5;12,8;1841
2021-07-07 15:00:00;22,0;101287;60;0,0098;0,02;2,0;251;5,3;-0,63;-1,93;350;0;0;23,4;30,7;27,9;19,6;18,5;17,3;17,9;16,8;-8,6;12,8;1906
2021-07-07 16:00:00;22,6;101288;57;0,0096;0,0;2,4;255;5,1;-0,58;-2,31;385;0;0;23,2;30,7;27,8;19,5;18,6;17,3;17,9;16,8;-8,6;12,9;1755
2021-07-07 17:00:00;21,5;101315;62;0,0097;0,0;1,4;254;3,1;-0,36;-1,3;136;0;0;23,2;30,6;27,7;19,5;18,5;17,4;18,0;16,8;-8,6;12,8;1850
2021-07-07 18:00:00;20,8;101360;66;0,01;0,0;0,9;239;1,8;-0,41;-0,81;58;0;0;23,1;30,6;27,7;19,5;18,4;17,5;18,0;16,8;-8,6;12,6;1851
2021-07-07 19:00:00;19,7;101398;78;0,0109;0,0;0,4;153;0,6;-0,31;0,16;19;0;0;23,1;30,6;27,7;19,5;18,4;17,5;18,0;16,8;-8,6;12,6;1847
2021-07-07 20:00:00;18,2;101457;86;0,011;0,0;0,5;189;1,0;-0,4;-0,03;0;0;0;23,1;30,6;27,7;19,5;18,2;17,5;17,9;16,8;-8,6;12,7;1818
2021-07-07 21:00:00;17,2;101488;89;0,0107;0,0;0,5;258;0,8;-0,12;-0,4;0;0;0;23,1;30,6;27,7;19,5;17,9;17,5;17,9;16,8;-8,6;12,4;1770
2021-07-07 22:00:00;16,5;101517;91;0,0105;0,0;0,4;235;0,6;-0,22;-0,04;0;0;0;23,1;30,6;27,7;19,5;17,7;17,5;17,8;16,8;-8,6;12,2;1601
2021-07-07 23:00:00;15,5;101558;96;0,0104;0,0;0,4;224;0,8;-0,14;-0,05;0;0;0;23,1;30,6;27,6;19,5;17,5;17,5;17,7;16,8;-8,6;12,2;1620
2021-07-08 00:00:00;14,5;101593;98;0,0099;0,0;0,4;178;0,8;-0,03;0,13;0;0;0;23,1;30,5;27,6;19,4;17,2;17,5;17,6;16,8;-8,6;12,3;1563
2021-07-08 01:00:00;14,1;101603;99;0,0098;0,0;0,4;153;0,8;-0,36;0,12;0;0;0;23,1;30,5;27,6;19,4;17,0;17,5;17,4;16,8;-8,6;12,3;1577
2021-07-08 02:00:00;13,6;101602;99;0,0094;0,0;0,4;242;0,6;-0,06;-0,17;0;0;0;23,2;30,5;27,6;19,4;16,8;17,4;17,3;16,9;-8,6;12,4;1527
2021-07-08 03:00:00;13,1;101607;100;0,0093;0,0;0,3;136;0,5;-0,08;0,16;2;0;0;23,1;30,5;27,6;19,4;16,6;17,4;17,2;16,9;-8,6;12,3;1451
2021-07-08 04:00:00;14,1;101650;100;0,0099;0,0;0,3;138;0,7;-0,22;0,19;44;0;0;23,2;30,5;27,6;19,4;16,6;17,3;17,0;16,9;-8,6;12,3;1524
2021-07-08 05:00:00;15,7;101673;100;0,011;0,0;0,3;148;0,7;-0,27;0,15;102;0;0;23,2;30,5;27,5;19,4;16,8;17,3;17,0;16,9;-8,6;11,9;1505
2021-07-08 06:00:00;16,6;101700;99;0,0115;0,0;0,5;146;1,0;-0,28;0,17;170;0;0;23,1;30,5;27,5;19,4;17,0;17,2;17,0;16,9;-8,6;11,7;1539